Weather Roundup
Issued by NWS Springfield, MO

Home | Current Version | Previous Version | Text Only | Print | Product List | Glossary On
Versions: 1 2 3 4 5 6 7 8 9 10 11 12 13 14 15 16 17 18 19 20 21 22 23 24 25 26 27 28 29 30 31 32 33 34 35 36 37 38 39 40 41 42 43 44 45 46 47 48 49 50
000
NZUS99 KSGF 220859
HRRSGF

HOURLY WEATHER
NATIONAL WEATHER SERVICE SPRINGFIELD MO
300 AM CST MON DEC 22 2014

......SGF CWA......

CITY           SKY/WX    TMP DP  RH WIND       PRES   REMARKS
SPRINGFIELD    CLOUDY    43  36  76 SE15      29.70F
JOPLIN         CLOUDY    44  41  89 SE9       29.68F
WEST PLAINS    CLOUDY    42  34  73 SE9       29.78F
ROLLA          CLOUDY    42  32  67 SE12      29.77F
OSAGE BEACH    CLOUDY    43  34  70 SE6       29.75F

......SURROUNDING SGF CWA......

CITY           SKY/WX    TMP DP  RH WIND       PRES   REMARKS
CHANUTE        CLOUDY    44  43  96 SE10      29.65F FOG
PARSONS        CLOUDY    45  43  93 SE6       29.66F
COFFEYVILLE    CLOUDY    45  43  93 S8        29.65F
EMPORIA        CLOUDY    42  42 100 SE12      29.61F FOG
SILOAM SPRINGS CLOUDY    43  37  81 SE8       29.70F
HARRISON AR    CLOUDY    44  41  89 S7        29.73F
NEAR YELLVILLE CLOUDY    45  36  70 E7        29.75F

......KANSAS AND MISSOURI......

CITY           SKY/WX    TMP DP  RH WIND       PRES   REMARKS
KANSAS CTY INT CLOUDY    42  38  85 S12       29.67F
DOWNTOWN KC    LGT RAIN  44  37  76 S8        29.68F
COLUMBIA       CLOUDY    41  35  79 SE8       29.78F
SEDALIA        MOCLDY    43  36  76 SE7       29.73F
ST JOSEPH      CLOUDY    43  39  86 S10       29.67F
ST LOUIS       CLOUDY    43  31  62 SE12      29.87F
SPIRIT OF STL  CLOUDY    42  31  64 E7        29.85F
KIRKSVILLE     CLOUDY    39  36  89 SE13      29.77F WCI  31
WICHITA        DRIZZLE   45  43  93 S12       29.58F FOG
TOPEKA         CLOUDY    45  42  89 SE10      29.65F
OLATHE         CLOUDY    42  40  92 S12       29.67F FOG

......TENNESSEE......

CITY           SKY/WX    TMP DP  RH WIND       PRES   REMARKS
MEMPHIS        DRZL/FOG  47  44  90 S8        29.89S VSB 1
NASHVILLE      CLOUDY    46  43  89 SE5       29.98F

......ARKANSAS.......

CITY           SKY/WX    TMP DP  RH WIND       PRES   REMARKS
FAYETTEVILLE   CLOUDY    45  43  93 S9        29.70F
FT SMITH       CLOUDY    46  43  89 E8        29.71F
LITTLE ROCK    CLOUDY    46  39  76 SE8       29.81F

......OKLAHOMA.......

CITY           SKY/WX    TMP DP  RH WIND       PRES   REMARKS
TULSA          CLOUDY    47  45  93 SE9       29.64F
PONCA CITY     CLOUDY    47  45  93 SE10      29.59F FOG
MCALESTER      CLOUDY    50  46  86 SE10G17   29.64F
OKLAHOMA CITY  CLOUDY    49  45  86 S12       29.56F

......IOWA............

CITY           SKY/WX    TMP DP  RH WIND       PRES   REMARKS
DES MOINES     CLOUDY    41  38  89 S14       29.70F
QUAD CITIES    CLOUDY    36  31  82 S12       29.86F WCI  28

......ILLINOIS........

CITY           SKY/WX    TMP DP  RH WIND       PRES   REMARKS
QUINCY         CLOUDY    39  33  79 SE12      29.83F WCI  32
CHICAGO        MOCLDY    28  25  88 SE7       29.97F WCI  21



USA.gov is the U.S. government's official web portal to all federal, state and local government web resources and services.